Aérodrome :
LOGIN :

S'inscrire | Disclaimer

   EN    FR    IT 

 










Légende :    VFR   VFR Marginal   IFR   IFR Intensif   IFR Très Intensif
Visi : 
Plafond : 
>= 8 km
>= 3000ft
5 à 8 km
1000 à 3000 ft
1500m à 5 km
500 à 1000 ft
800 à 1500m
200 à 500 ft
< 800m
< 200 ft
Symboles :   Orages  Brouillard  Fortes neiges  Fortes précipitations  Vent > 20 kt
SIGMETs :   Divers  Orages  Givrage  Turbulence  Onde Orograph.  Cendres Volcan.






- Altitude de l'aérodrome : 665 ft
- Code IATA : NOC


EIKN - Connaught / Knock- Ireland West

DERNIER METAR :
  • 200900Z 30004KT 9999 FEW010 FEW020CB 01/01 Q0982 NOSIG

TAF TAF EIKN
Valide du 20 à 06h jusqu'au 21 à 06h UTC


200500Z 2006/2106 30006KT 9999 FEW002 SCT020
PROB40
TEMPO 2006/2010 0500 FG BKN002
TEMPO 2014/2018 -SHRA BKN012 SCT018CB
PROB30
TEMPO 2014/2018 4000 BKN006
TEMPO 2018/2106 4000 -SHRASN BKN006 SCT018CB
PROB30
TEMPO 2023/2105 2000 -SHSN BKN003
BECMG 2102/2104 27012KT



MET'MAP, la Météo Aéronautique d'un coup d'oeil ! - Copyright ORBIFLY Décembre 2007 - Disclaimer

ORBIFLY MET'MAP TEAM :

Programmation & Développement : Alexandra Zaïnal
Sur une idée originale de : Baudouin d'Aumeries
Assistance à la programmation : Marc-Olivier Méhu
Soutien technique & logistique : Manuel Goepfert

Contact : metmap@orbifly.com




SOURCES & CREDITS :

   NOAA